LiveATC.Net - Listen to live air traffic control over the Internet!


ICAO: KBEC  IATA: BEC   Airport: Beech Factory Airport
City: Wichita   State/Province: Kansas
Country: United States   Continent: North America
KBEC METAR Weather: KBEC 281415Z AUTO 15015G27KT 10SM CLR 22/14 A2979 RMK AO2 T02150135
KBEC Flight Activity (FlightAware)
KBEC Airport Info   (iFlightPlanner)
KBEC VFR Sectional Chart   (iFlightPlanner) 
KBEC IFR Low Altitude Chart   (iFlightPlanner) 
KBEC IFR High Altitude Chart   (iFlightPlanner) 

KAAO CTAF/KBEC Twr
Feed Status: UP   Listeners: 0
Listen in your browser - HTML5 player (in browser, HTML5)
Click here to listen with your own player (launches your MP3 player)
Archive Access: KAAO CTAF/KBEC Twr
FacilityFrequency
Beech Tower126.800
Jabara CTAF122.700

NOTICE

Unauthorized use prohibited. See LiveATC.net Terms of Service


Airport/ARTCC Code
Frequency Search
(e.g., 124.400, 128.75)
Site-wide search
 


Browse Feeds
Top 50 Feeds
HF Oceanic Feeds
Coverage Map
Bad Weather Areas

LiveATC FAQ
Offer LiveATC feed
Contact LiveATC.net
Press Inquiries

LiveATC on iPhone
LiveATC on Android

LiveATC Mobile
(Mobile browser)

ATC Audio Archives
Interesting Recordings

LiveATC Forums


Home Page
About LiveATC.net


Terms of Use
Privacy Policy

AIRMETs/SIGMETs

FAA Airport Status
NAS Status
Arrival Demand


Server Software By:
Icecast.org
Liquidsoap